{"data":{"norad_id":67405,"intl_designator":"2026-005B","name":"STARLINK-36452","alt_names":[],"object_type":"PAYLOAD","status":"ACTIVE","operator":null,"country":"US","launch_date":"2026-01-12","launch_site_code":"AFETR","launch_vehicle":null,"mission":null,"orbit_class":"UNKNOWN","rcs_meters":null,"size_class":null,"mass_kg":null,"dimensions":null,"purposes":["comms"],"wikipedia_slug":null,"has_3d_model":false,"image_url":null,"decayed_at":null,"tle_current":{"epoch":"2026-09-19T13:55:25.644288Z","epoch_age_seconds":154833,"freshness":"FRESH","line1":"1 67405U 26005B   26262.58015792  .00012025  00000+0  44564-3 0  9995","line2":"2 67405  42.9991 222.6337 0000854 348.8017  11.2816 15.27589785 38356","mean_motion":15.27589785,"eccentricity":8.54e-5,"inclination_deg":42.9991,"raan_deg":222.6337,"arg_perigee_deg":348.8017,"mean_anomaly_deg":11.2816,"bstar":0.00044564,"rev_number":3835,"period_min":94.266144886534,"perigee_km":482.43385359551,"apogee_km":483.60573917633,"semimajor_km":6861.1567963859,"source":"CELESTRAK","updated_at":"2026-09-20T09:00:43.518525Z"}}}